This demonstration page uses our WeatherBlox Daily Observations layout. Learn more.

Left ArrowRight Arrow

34.02893, -84.19858

Hourly Observations for December 25, 2018

Temp ( °F °C ) Dew Point ( °F °C ) Humidity (%) Winds ( mph kmh ) Pressure ( in mb ) Visibility ( mi km ) Precip ( " mm )
12:17 am 00:17 Clear with Mist and Fog 30 -1.1 29 -1.7 96 96 Calm 30.30 1026 3 4 0.00 0.00
12:32 am 00:32 Clear with Mist and Fog 30 -1.1 28 -2.2 92 92 Calm 30.30 1026 3 5 0.00 0.00
12:40 am 00:40 Clear with Mist and Fog 29 -1.7 27 -2.8 92 92 Calm 30.27 1025 3 4 0.00 0.00
12:53 am 00:53 Clear with Mist and Fog 31 -0.6 28 -2.2 89 89 Calm 30.26 1025 3 4 0.00 0.00
1:08 am 01:08 Clear with Mist and Fog 30 -1.1 28 -2.2 92 92 Calm 30.27 1025 2 2 0.00 0.00
1:40 am 01:40 Clear with Freezing Fog 29 -1.7 27 -2.8 92 92 Calm 30.30 1026 1 1 0.00 0.00
1:53 am 01:53 Clear with Freezing Fog 31 -0.6 28 -2.2 89 89 Calm 30.28 1025 0 0 0.00 0.00
2:18 am 02:18 Clear with Mist and Fog 29 -1.7 27 -2.8 92 92 Calm 30.30 1026 1 2 0.00 0.00
2:23 am 02:23 Clear with Freezing Fog 29 -1.7 27 -2.8 92 92 Calm 30.30 1026 1 1 0.00 0.00
2:51 am 02:51 Clear with Mist and Fog 28 -2 27 -3 93 93 Calm 30.30 1026 1 2 0.00 0.00
2:53 am 02:53 Clear with Mist and Fog 29 -1.7 27 -2.8 92 92 Calm 30.29 1026 1 2 0.00 0.00
3:37 am 03:37 Clear with Mist and Fog 29 -1.7 27 -2.8 92 92 Calm 30.33 1027 1 1 0.00 0.00
3:53 am 03:53 Clear with Mist and Fog 29 -1.7 27 -2.8 92 92 Calm 30.29 1026 1 2 0.00 0.00
4:10 am 04:10 Clear with Mist and Fog 29 -1.7 27 -2.8 92 92 NNE 3 6 30.30 1026 3 5 0.00 0.00
4:25 am 04:25 Clear with Mist and Fog 29 -1.7 27 -2.8 92 92 Calm 30.30 1026 2 3 0.00 0.00
4:38 am 04:38 Clear with Mist and Fog 30 -1.1 28 -2.2 92 92 Calm 30.30 1026 3 5 0.00 0.00
4:53 am 04:53 Clear with Mist and Fog 29 -1.7 27 -2.8 92 92 Calm 30.28 1026 3 5 0.00 0.00
5:53 am 05:53 Clear with Mist and Fog 30 -1.1 28 -2.2 92 92 Calm 30.31 1027 5 8 0.00 0.00
6:53 am 06:53 Clear with Mist and Fog 30 -1.1 27 -2.8 88 88 Calm 30.32 1027 4 6 0.00 0.00
7:53 am 07:53 Sunny with Mist and Fog 29 -1.7 27 -2.8 92 92 Calm 30.35 1028 4 6 0.00 0.00
8:53 am 08:53 Sunny with Mist and Fog 35 1.7 33 0.6 93 93 Calm 30.36 1028 4 6 0.00 0.00
9:53 am 09:53 Sunny 43 6.1 35 1.7 74 74 ESE 5 7 30.35 1028 7 11 0.00 0.00
10:53 am 10:53 Sunny 48 8.9 36 2.2 63 63 S 6 9 30.37 1029 9 14 0.00 0.00
11:53 am 11:53 Sunny 50 10 36 2.2 59 59 WSW 6 9 30.35 1028 9 14 0.00 0.00
12:53 pm 12:53 Sunny 54 12.2 35 1.7 49 49 WNW 5 7 30.32 1027 9 14 0.00 0.00
1:53 pm 13:53 Sunny 54 12.2 31 -0.6 42 42 Calm 30.30 1026 10 16 0.00 0.00
2:53 pm 14:53 Mostly Cloudy 56 13.3 31 -0.6 39 39 Calm 30.30 1026 10 16 0.00 0.00
3:53 pm 15:53 Cloudy 55 12.8 31 -0.6 40 40 Calm 30.30 1026 9 14 0.00 0.00
4:53 pm 16:53 Cloudy 54 12.2 32 0 43 43 NNW 5 7 30.31 1026 9 14 0.00 0.00
5:53 pm 17:53 Cloudy 51 10.6 35 1.7 54 54 N 5 7 30.32 1027 10 16 0.00 0.00
6:53 pm 18:53 Cloudy 51 10.6 36 2.2 56 56 N 3 6 30.34 1027 9 14 0.00 0.00
7:53 pm 19:53 Cloudy 50 10 35 1.7 57 57 SSE 3 6 30.34 1027 8 13 0.00 0.00
8:53 pm 20:53 Cloudy 50 10 35 1.7 57 57 Calm 30.34 1027 8 13 0.00 0.00
9:53 pm 21:53 Mostly Clear 43 6.1 35 1.7 74 74 Calm 30.35 1028 8 13 0.00 0.00
10:53 pm 22:53 Mostly Clear 41 5 35 1.7 79 79 Calm 30.35 1028 7 11 0.00 0.00
11:53 pm 23:53 Clear 38 3.3 34 1.1 86 86 Calm 30.35 1028 7 11 0.00 0.00

Powered by AerisWeather